When you browse on this site, cookies collect data to enhance your experience and personalize the content and advertising you see.
Visit our Privacy Policy to learn more. By continuing to use the site, you agree to this use of cookies and data.
  • In Austria
  • List of Countries
  • For 7 days
  • Water Temperature
  • Satellite Maps
  • Weather Map
  • News
  • Weather Widgets
  • user-avatar
    Login

    Hourly Weather Etchmiadzin

    Today, 26 June, Wednesday

    Time Temperature Precipitation Wind Pressure Humidity
    00:00 +25°C° 0.3 mm 2 mps 688 mmHg 61%
    01:00 +24°C° 0 mm 2 mps 688 mmHg 62%
    02:00 +24°C° 0 mm 2 mps 687 mmHg 62%
    03:00 +23°C° 0 mm 2 mps 687 mmHg 63%
    04:00 +24°C° 0 mm 2 mps 688 mmHg 61%
    05:00 +25°C° 0 mm 2 mps 688 mmHg 59%
    06:00 +25°C° 0 mm 2 mps 688 mmHg 58%
    07:00 +27°C° 0 mm 2 mps 688 mmHg 52%
    08:00 +29°C° 0 mm 1 mps 688 mmHg 46%
    09:00 +31°C° 0 mm 1 mps 689 mmHg 40%
    10:00 +32°C° 0 mm 1 mps 689 mmHg 37%
    11:00 +34°C° 0 mm 1 mps 689 mmHg 33%
    12:00 +35°C° 0 mm 1 mps 689 mmHg 30%
    13:00 +36°C° 0.1 mm 1 mps 688 mmHg 28%
    14:00 +37°C° 0.1 mm 1 mps 688 mmHg 27%
    15:00 +37°C° 0.1 mm 1 mps 688 mmHg 25%
    16:00 +37°C° 0.1 mm 2 mps 687 mmHg 30%
    17:00 +35°C° 0.1 mm 3 mps 687 mmHg 35%
    18:00 +34°C° 0.1 mm 3 mps 687 mmHg 40%
    19:00 +31°C° 0.2 mm 3 mps 687 mmHg 45%
    20:00 +29°C° 0.2 mm 3 mps 687 mmHg 49%
    21:00 +27°C° 0.2 mm 2 mps 687 mmHg 54%
    22:00 +26°C° 0.3 mm 2 mps 686 mmHg 57%
    23:00 +25°C° 0.3 mm 2 mps 686 mmHg 59%

    Tomorrow, 27 June, Thursday

    Time Temperature Precipitation Wind Pressure Humidity
    00:00 +25°C° 0.3 mm 2 mps 686 mmHg 62%
    01:00 +24°C° 0.3 mm 2 mps 686 mmHg 64%
    02:00 +23°C° 0.3 mm 2 mps 686 mmHg 67%
    03:00 +23°C° 0.3 mm 1 mps 686 mmHg 69%
    04:00 +23°C° 0.1 mm 1 mps 686 mmHg 67%
    05:00 +24°C° 0.1 mm 1 mps 686 mmHg 64%
    06:00 +25°C° 0.1 mm 1 mps 686 mmHg 62%
    07:00 +26°C° 0 mm 1 mps 686 mmHg 56%
    08:00 +28°C° 0 mm 1 mps 686 mmHg 50%
    09:00 +30°C° 0 mm 2 mps 686 mmHg 43%
    10:00 +31°C° 0.1 mm 1 mps 686 mmHg 40%
    11:00 +33°C° 0.1 mm 1 mps 685 mmHg 36%
    12:00 +34°C° 0.1 mm 1 mps 685 mmHg 33%
    13:00 +35°C° 0.1 mm 1 mps 685 mmHg 31%
    14:00 +35°C° 0.1 mm 1 mps 685 mmHg 30%
    15:00 +37°C° 0.1 mm 2 mps 684 mmHg 29%
    16:00 +35°C° 0.2 mm 2 mps 684 mmHg 35%
    17:00 +33°C° 0.2 mm 3 mps 684 mmHg 41%
    18:00 +30°C° 0.2 mm 4 mps 683 mmHg 47%
    19:00 +28°C° 0.2 mm 3 mps 683 mmHg 51%
    20:00 +27°C° 0.2 mm 3 mps 684 mmHg 54%
    21:00 +25°C° 0.2 mm 2 mps 684 mmHg 57%
    22:00 +25°C° 0.1 mm 2 mps 683 mmHg 59%
    23:00 +25°C° 0.1 mm 2 mps 683 mmHg 60%

    Day after tomorrow, 28 June, Friday

    Time Temperature Precipitation Wind Pressure Humidity
    00:00 +24°C° 0.1 mm 1 mps 683 mmHg 62%
    01:00 +24°C° 0.1 mm 1 mps 683 mmHg 63%
    02:00 +24°C° 0.1 mm 1 mps 683 mmHg 64%
    03:00 +24°C° 0.1 mm 2 mps 682 mmHg 65%
    04:00 +24°C° 0.1 mm 1 mps 682 mmHg 65%
    05:00 +24°C° 0.1 mm 1 mps 682 mmHg 64%
    06:00 +24°C° 0.1 mm 1 mps 682 mmHg 64%
    07:00 +26°C° 0.1 mm 1 mps 682 mmHg 58%
    08:00 +27°C° 0.1 mm 1 mps 682 mmHg 53%
    09:00 +29°C° 0.1 mm 1 mps 681 mmHg 47%
    10:00 +30°C° 0.2 mm 1 mps 681 mmHg 43%
    11:00 +31°C° 0.2 mm 1 mps 681 mmHg 39%
    12:00 +34°C° 0.2 mm 2 mps 681 mmHg 35%
    13:00 +34°C° 0.1 mm 2 mps 680 mmHg 33%
    14:00 +35°C° 0.1 mm 2 mps 680 mmHg 31%
    15:00 +36°C° 0.1 mm 2 mps 680 mmHg 30%
    16:00 +33°C° 0.7 mm 3 mps 679 mmHg 39%
    17:00 +29°C° 0.7 mm 3 mps 679 mmHg 49%
    18:00 +26°C° 0.7 mm 3 mps 679 mmHg 58%
    19:00 +25°C° 0.2 mm 3 mps 679 mmHg 63%
    20:00 +24°C° 0.2 mm 2 mps 680 mmHg 68%
    21:00 +23°C° 0.2 mm 2 mps 680 mmHg 73%
    22:00 +23°C° 0 mm 2 mps 680 mmHg 74%
    23:00 +22°C° 0 mm 1 mps 680 mmHg 75%

    29 June, Saturday

    Time Temperature Precipitation Wind Pressure Humidity
    00:00 +22°C° 0 mm 1 mps 680 mmHg 76%
    01:00 +22°C° 0 mm 1 mps 679 mmHg 74%
    02:00 +21°C° 0 mm 1 mps 679 mmHg 73%
    03:00 +21°C° 0 mm 1 mps 679 mmHg 71%
    04:00 +22°C° 0.1 mm 1 mps 679 mmHg 69%
    05:00 +22°C° 0.1 mm 1 mps 679 mmHg 67%
    06:00 +23°C° 0.1 mm 1 mps 679 mmHg 65%
    07:00 +24°C° 0.1 mm 1 mps 679 mmHg 59%
    08:00 +26°C° 0.1 mm 1 mps 679 mmHg 53%
    09:00 +27°C° 0.1 mm 2 mps 679 mmHg 48%
    10:00 +29°C° 0.2 mm 2 mps 679 mmHg 43%
    11:00 +30°C° 0.2 mm 1 mps 679 mmHg 39%
    12:00 +32°C° 0.2 mm 1 mps 680 mmHg 35%
    13:00 +34°C° 0.1 mm 2 mps 679 mmHg 33%
    14:00 +34°C° 0.1 mm 3 mps 679 mmHg 32%
    15:00 +35°C° 0.1 mm 3 mps 679 mmHg 30%
    16:00 +30°C° 2.1 mm 3 mps 679 mmHg 44%
    17:00 +26°C° 2.1 mm 2 mps 679 mmHg 58%
    18:00 +23°C° 2.1 mm 1 mps 678 mmHg 72%
    19:00 +22°C° 0.3 mm 1 mps 679 mmHg 75%
    20:00 +22°C° 0.3 mm 1 mps 680 mmHg 77%
    21:00 +22°C° 0.3 mm 1 mps 680 mmHg 79%
    22:00 +21°C° 0 mm 1 mps 680 mmHg 79%
    23:00 +21°C° 0 mm 1 mps 680 mmHg 79%

    30 June, Sunday

    Time Temperature Precipitation Wind Pressure Humidity
    00:00 +21°C° 0 mm 1 mps 680 mmHg 79%
    01:00 +21°C° 0 mm 1 mps 680 mmHg 79%
    02:00 +20°C° 0 mm 1 mps 680 mmHg 79%
    03:00 +18°C° 0 mm 0 mps 680 mmHg 79%
    04:00 +20°C° 0 mm 1 mps 680 mmHg 75%
    05:00 +21°C° 0 mm 1 mps 680 mmHg 72%
    06:00 +22°C° 0 mm 1 mps 680 mmHg 68%
    07:00 +23°C° 0.1 mm 2 mps 681 mmHg 63%
    08:00 +24°C° 0.1 mm 2 mps 681 mmHg 58%
    09:00 +26°C° 0.1 mm 3 mps 681 mmHg 53%
    10:00 +27°C° 0.3 mm 3 mps 681 mmHg 49%
    11:00 +28°C° 0.3 mm 3 mps 681 mmHg 45%
    12:00 +30°C° 0.3 mm 3 mps 681 mmHg 40%
    13:00 +30°C° 0.5 mm 3 mps 681 mmHg 39%
    14:00 +31°C° 0.5 mm 3 mps 681 mmHg 37%
    15:00 +33°C° 0.5 mm 3 mps 681 mmHg 35%
    16:00 +31°C° 0.3 mm 3 mps 681 mmHg 37%
    17:00 +30°C° 0.3 mm 4 mps 681 mmHg 40%
    18:00 +30°C° 0.3 mm 4 mps 681 mmHg 42%
    19:00 +27°C° 0.8 mm 4 mps 681 mmHg 51%
    20:00 +23°C° 0.8 mm 5 mps 681 mmHg 61%
    21:00 +20°C° 0.8 mm 5 mps 681 mmHg 70%
    22:00 +20°C° 0.4 mm 4 mps 681 mmHg 70%
    23:00 +19°C° 0.4 mm 4 mps 681 mmHg 70%

    1 July, Monday

    Time Temperature Precipitation Wind Pressure Humidity
    00:00 +19°C° 0.4 mm 4 mps 681 mmHg 71%
    01:00 +18°C° 0.1 mm 3 mps 681 mmHg 70%
    02:00 +18°C° 0.1 mm 3 mps 681 mmHg 70%
    03:00 +18°C° 0.1 mm 3 mps 681 mmHg 70%
    04:00 +18°C° 0 mm 3 mps 681 mmHg 68%
    05:00 +18°C° 0 mm 3 mps 681 mmHg 66%
    06:00 +19°C° 0 mm 3 mps 681 mmHg 64%
    07:00 +20°C° 0.1 mm 3 mps 681 mmHg 59%
    08:00 +22°C° 0.1 mm 3 mps 681 mmHg 54%
    09:00 +24°C° 0.1 mm 3 mps 681 mmHg 49%
    10:00 +25°C° 0.3 mm 3 mps 681 mmHg 45%
    11:00 +27°C° 0.3 mm 3 mps 682 mmHg 41%
    12:00 +28°C° 0.3 mm 4 mps 682 mmHg 37%
    13:00 +28°C° 0.4 mm 4 mps 682 mmHg 36%
    14:00 +28°C° 0.4 mm 5 mps 681 mmHg 35%
    15:00 +28°C° 0.4 mm 6 mps 681 mmHg 33%
    16:00 +27°C° 0.2 mm 6 mps 682 mmHg 37%
    17:00 +26°C° 0.2 mm 6 mps 682 mmHg 40%
    18:00 +24°C° 0.2 mm 6 mps 682 mmHg 43%
    19:00 +22°C° 0.2 mm 6 mps 683 mmHg 47%
    20:00 +21°C° 0.2 mm 5 mps 683 mmHg 50%
    21:00 +19°C° 0.2 mm 5 mps 684 mmHg 54%
    22:00 +17°C° 0.1 mm 5 mps 684 mmHg 54%
    23:00 +18°C° 0.1 mm 4 mps 684 mmHg 55%
    Show more